Location: Pine Mountain Observatory
(43.7910°N, 120.9377°W)
Time: 18:16:04
(UTC-07:00)

APEX - Visible Passes

Search period start: 30 July 2014 00:00
Search period end: 09 August 2014 00:00
Orbit: 338 x 1422 km, 69.9° (Epoch: 30 July)

Date Brightness Start Highest point End Pass type
(mag) Time Alt. Az. Time Alt. Az. Time Alt. Az.
30 Jul 6.5 22:28:24 10° NW 22:32:55 19° W 22:36:47 10° SW visible
31 Jul 6.7 22:25:31 10° WNW 22:29:11 15° W 22:32:25 10° SW visible
01 Aug 6.9 22:22:53 10° WNW 22:25:25 12° W 22:27:43 10° WSW visible
